Time,TemperatureF,DewpointF,PressureIn,WindDirection,WindDirectionDegrees,WindSpeedMPH,WindSpeedGustMPH,Humidity,HourlyPrecipIn,Conditions,Clouds,dailyrainin,SolarRadiationWatts/m^2,SoftwareType,DateUTC
2013-09-07 00:01:00,62.7,47.0,29.82,NNE,30,1.0,2.0,58,0.00,,,0.00,0,weatherlink.com 1.10,2013-09-07 07:01:00,
2013-09-07 00:16:00,62.0,47.0,29.82,NNE,30,0.0,2.0,59,0.00,,,0.00,0,weatherlink.com 1.10,2013-09-07 07:16:00,
2013-09-07 00:31:00,61.6,48.0,29.82,NNE,30,0.0,1.0,62,0.00,,,0.00,0,weatherlink.com 1.10,2013-09-07 07:31:00,
2013-09-07 00:46:00,61.1,50.0,29.82,NNE,23,2.0,3.0,66,0.00,,,0.00,0,weatherlink.com 1.10,2013-09-07 07:46:00,
2013-09-07 01:01:00,59.9,50.0,29.83,NNE,23,0.0,3.0,69,0.00,,,0.00,0,weatherlink.com 1.10,2013-09-07 08:01:00,
2013-09-07 01:16:00,59.1,49.0,29.82,NNE,23,0.0,1.0,70,0.00,,,0.00,0,weatherlink.com 1.10,2013-09-07 08:16:00,
2013-09-07 01:31:00,58.3,48.0,29.82,NNE,23,0.0,1.0,69,0.00,,,0.00,0,weatherlink.com 1.10,2013-09-07 08:31:00,
2013-09-07 01:46:00,58.2,47.0,29.83,NNE,23,0.0,1.0,67,0.00,,,0.00,0,weatherlink.com 1.10,2013-09-07 08:46:00,
2013-09-07 02:01:00,58.0,47.0,29.82,NNE,23,0.0,0.0,67,0.00,,,0.00,0,weatherlink.com 1.10,2013-09-07 09:01:00,
2013-09-07 02:16:00,57.6,47.0,29.82,NNE,23,0.0,1.0,68,0.00,,,0.00,0,weatherlink.com 1.10,2013-09-07 09:16:00,
2013-09-07 02:31:00,57.1,48.0,29.82,NNE,23,0.0,0.0,71,0.00,,,0.00,0,weatherlink.com 1.10,2013-09-07 09:31:00,
2013-09-07 02:46:00,56.4,47.0,29.82,NNE,23,0.0,0.0,71,0.00,,,0.00,0,weatherlink.com 1.10,2013-09-07 09:46:00,
2013-09-07 03:01:00,56.3,47.0,29.82,NNE,23,0.0,0.0,71,0.00,,,0.00,0,weatherlink.com 1.10,2013-09-07 10:01:00,
2013-09-07 03:16:00,56.2,47.0,29.82,NNE,23,0.0,1.0,72,0.00,,,0.00,0,weatherlink.com 1.10,2013-09-07 10:16:00,
2013-09-07 03:31:00,55.9,48.0,29.82,NNE,23,1.0,2.0,75,0.00,,,0.00,0,weatherlink.com 1.10,2013-09-07 10:31:00,
2013-09-07 03:46:00,55.3,48.0,29.82,NNE,23,0.0,2.0,77,0.00,,,0.00,0,weatherlink.com 1.10,2013-09-07 10:46:00,
2013-09-07 04:01:00,54.5,48.0,29.82,NNE,23,0.0,1.0,78,0.00,,,0.00,0,weatherlink.com 1.10,2013-09-07 11:01:00,
2013-09-07 04:16:00,53.4,46.0,29.82,NNE,23,0.0,0.0,77,0.00,,,0.00,0,weatherlink.com 1.10,2013-09-07 11:16:00,
2013-09-07 04:31:00,52.6,46.0,29.82,NNE,23,0.0,1.0,78,0.00,,,0.00,0,weatherlink.com 1.10,2013-09-07 11:31:00,
2013-09-07 04:46:00,52.4,47.0,29.82,NNE,23,0.0,1.0,81,0.00,,,0.00,0,weatherlink.com 1.10,2013-09-07 11:46:00,
2013-09-07 05:01:00,52.1,46.0,29.82,NNE,23,0.0,1.0,80,0.00,,,0.00,0,weatherlink.com 1.10,2013-09-07 12:01:00,
2013-09-07 05:16:00,52.1,46.0,29.82,NNE,23,0.0,1.0,80,0.00,,,0.00,0,weatherlink.com 1.10,2013-09-07 12:16:00,
2013-09-07 05:31:00,52.2,46.0,29.82,NNE,23,1.0,1.0,79,0.00,,,0.00,0,weatherlink.com 1.10,2013-09-07 12:31:00,
2013-09-07 05:46:00,50.9,44.0,29.82,NNE,23,0.0,1.0,78,0.00,,,0.00,0,weatherlink.com 1.10,2013-09-07 12:46:00,
2013-09-07 06:01:00,50.6,44.0,29.83,NNE,23,0.0,0.0,79,0.00,,,0.00,0,weatherlink.com 1.10,2013-09-07 13:01:00,
2013-09-07 06:16:00,50.5,45.0,29.83,NNE,23,2.0,2.0,80,0.00,,,0.00,0,weatherlink.com 1.10,2013-09-07 13:16:00,
2013-09-07 06:31:00,50.8,45.0,29.83,NNE,23,0.0,2.0,80,0.00,,,0.00,0,weatherlink.com 1.10,2013-09-07 13:31:00,
2013-09-07 06:47:00,51.2,46.0,29.83,NNE,23,3.0,3.0,81,0.00,,,0.00,0,weatherlink.com 1.10,2013-09-07 13:47:00,
2013-09-07 07:02:00,51.6,46.0,29.84,NNE,23,0.0,1.0,80,0.00,,,0.00,11,weatherlink.com 1.10,2013-09-07 14:02:00,
2013-09-07 07:17:00,52.0,46.0,29.84,NNE,23,0.0,1.0,80,0.00,,,0.00,25,weatherlink.com 1.10,2013-09-07 14:17:00,
2013-09-07 07:32:00,52.5,47.0,29.84,NNE,23,0.0,0.0,80,0.00,,,0.00,100,weatherlink.com 1.10,2013-09-07 14:32:00,
2013-09-07 07:47:00,53.7,48.0,29.85,NNE,23,0.0,0.0,80,0.00,,,0.00,155,weatherlink.com 1.10,2013-09-07 14:47:00,
2013-09-07 08:02:00,55.9,49.0,29.85,NNE,23,0.0,1.0,77,0.00,,,0.00,214,weatherlink.com 1.10,2013-09-07 15:02:00,
2013-09-07 08:17:00,57.9,50.0,29.85,NNE,23,0.0,0.0,74,0.00,,,0.00,269,weatherlink.com 1.10,2013-09-07 15:17:00,
2013-09-07 08:32:00,60.1,51.0,29.85,NNE,23,0.0,1.0,71,0.00,,,0.00,316,weatherlink.com 1.10,2013-09-07 15:32:00,
2013-09-07 08:47:00,63.3,52.0,29.85,NE,42,0.0,0.0,66,0.00,,,0.00,367,weatherlink.com 1.10,2013-09-07 15:47:00,
2013-09-07 09:02:00,66.0,52.0,29.85,NE,42,0.0,1.0,61,0.00,,,0.00,417,weatherlink.com 1.10,2013-09-07 16:02:00,
2013-09-07 09:17:00,69.0,52.0,29.86,North,355,2.0,3.0,54,0.00,,,0.00,462,weatherlink.com 1.10,2013-09-07 16:17:00,
2013-09-07 09:32:00,71.2,52.0,29.86,North,349,0.0,2.0,51,0.00,,,0.00,504,weatherlink.com 1.10,2013-09-07 16:32:00,
2013-09-07 09:47:00,73.4,51.0,29.86,North,349,2.0,2.0,46,0.00,,,0.00,548,weatherlink.com 1.10,2013-09-07 16:47:00,
2013-09-07 10:02:00,75.2,50.0,29.86,WSW,246,0.0,3.0,42,0.00,,,0.00,587,weatherlink.com 1.10,2013-09-07 17:02:00,
2013-09-07 10:17:00,76.9,51.0,29.86,WSW,250,0.0,3.0,40,0.00,,,0.00,628,weatherlink.com 1.10,2013-09-07 17:17:00,
2013-09-07 10:33:00,77.9,51.0,29.85,West,263,0.0,2.0,39,0.00,,,0.00,663,weatherlink.com 1.10,2013-09-07 17:33:00,
2013-09-07 10:48:00,81.0,50.0,29.85,WSW,252,0.0,4.0,34,0.00,,,0.00,694,weatherlink.com 1.10,2013-09-07 17:48:00,
2013-09-07 11:03:00,82.8,52.0,29.85,SSW,199,1.0,5.0,34,0.00,,,0.00,724,weatherlink.com 1.10,2013-09-07 18:03:00,
2013-09-07 11:18:00,84.1,52.0,29.84,NNW,345,2.0,4.0,33,0.00,,,0.00,745,weatherlink.com 1.10,2013-09-07 18:18:00,
2013-09-07 11:33:00,85.4,52.0,29.84,SSE,163,0.0,3.0,32,0.00,,,0.00,770,weatherlink.com 1.10,2013-09-07 18:33:00,
2013-09-07 11:48:00,87.5,51.0,29.84,West,259,2.0,6.0,28,0.00,,,0.00,788,weatherlink.com 1.10,2013-09-07 18:48:00,
2013-09-07 12:03:00,88.9,50.0,29.83,South,175,1.0,5.0,26,0.00,,,0.00,803,weatherlink.com 1.10,2013-09-07 19:03:00,
2013-09-07 12:18:00,91.0,50.0,29.83,SSW,211,4.0,5.0,24,0.00,,,0.00,812,weatherlink.com 1.10,2013-09-07 19:18:00,
2013-09-07 12:33:00,92.4,46.0,29.82,SW,221,5.0,8.0,20,0.00,,,0.00,823,weatherlink.com 1.10,2013-09-07 19:33:00,
2013-09-07 12:48:00,93.1,42.0,29.82,SSW,201,0.0,9.0,17,0.00,,,0.00,823,weatherlink.com 1.10,2013-09-07 19:48:00,
2013-09-07 13:03:00,94.6,43.0,29.82,South,183,0.0,5.0,17,0.00,,,0.00,824,weatherlink.com 1.10,2013-09-07 20:03:00,
2013-09-07 13:18:00,94.7,44.0,29.81,South,184,0.0,5.0,17,0.00,,,0.00,821,weatherlink.com 1.10,2013-09-07 20:18:00,
2013-09-07 13:33:00,95.1,42.0,29.80,WNW,286,4.0,10.0,16,0.00,,,0.00,817,weatherlink.com 1.10,2013-09-07 20:33:00,
2013-09-07 13:48:00,96.2,43.0,29.80,NE,49,2.0,5.0,16,0.00,,,0.00,796,weatherlink.com 1.10,2013-09-07 20:48:00,
2013-09-07 14:03:00,93.9,52.0,29.80,NNW,327,5.0,11.0,24,0.00,,,0.00,782,weatherlink.com 1.10,2013-09-07 21:03:00,
2013-09-07 14:18:00,91.9,52.0,29.80,NNW,336,9.0,14.0,26,0.00,,,0.00,74,weatherlink.com 1.10,2013-09-07 21:18:00,
2013-09-07 14:33:00,91.3,52.0,29.79,WNW,295,6.0,14.0,26,0.00,,,0.00,42,weatherlink.com 1.10,2013-09-07 21:33:00,
2013-09-07 14:48:00,90.1,51.0,29.79,NNE,13,4.0,14.0,26,0.00,,,0.00,40,weatherlink.com 1.10,2013-09-07 21:48:00,
2013-09-07 15:03:00,90.3,52.0,29.79,NNW,328,7.0,13.0,27,0.00,,,0.00,113,weatherlink.com 1.10,2013-09-07 22:03:00,
2013-09-07 15:18:00,90.3,51.0,29.79,North,11,4.0,11.0,26,0.00,,,0.00,649,weatherlink.com 1.10,2013-09-07 22:18:00,
2013-09-07 15:33:00,89.5,51.0,29.79,NNW,333,4.0,12.0,27,0.00,,,0.00,619,weatherlink.com 1.10,2013-09-07 22:33:00,
2013-09-07 15:48:00,88.0,52.0,29.79,North,9,3.0,16.0,29,0.00,,,0.00,584,weatherlink.com 1.10,2013-09-07 22:48:00,
2013-09-07 16:33:00,85.2,51.0,29.79,WNW,303,4.0,12.0,31,0.00,,,0.00,461,weatherlink.com 1.10,2013-09-07 23:33:00,
2013-09-07 16:48:00,85.3,51.0,29.79,North,5,6.0,8.0,30,0.00,,,0.00,77,weatherlink.com 1.10,2013-09-07 23:48:00,
2013-09-07 17:03:00,85.0,50.0,29.79,NW,318,2.0,8.0,30,0.00,,,0.00,371,weatherlink.com 1.10,2013-09-08 00:03:00,
2013-09-07 17:18:00,84.2,50.0,29.79,NNE,12,2.0,9.0,31,0.00,,,0.00,304,weatherlink.com 1.10,2013-09-08 00:18:00,
2013-09-07 17:33:00,84.3,51.0,29.79,NNE,28,4.0,7.0,31,0.00,,,0.00,35,weatherlink.com 1.10,2013-09-08 00:33:00,
2013-09-07 17:48:00,84.5,51.0,29.79,NNE,15,3.0,7.0,31,0.00,,,0.00,32,weatherlink.com 1.10,2013-09-08 00:48:00,
2013-09-07 18:04:00,84.0,50.0,29.79,NNW,341,3.0,7.0,31,0.00,,,0.00,30,weatherlink.com 1.10,2013-09-08 01:04:00,
2013-09-07 18:19:00,81.2,50.0,29.79,NNW,334,4.0,9.0,34,0.00,,,0.00,125,weatherlink.com 1.10,2013-09-08 01:19:00,
2013-09-07 18:34:00,78.8,50.0,29.80,NNW,344,3.0,9.0,37,0.00,,,0.00,72,weatherlink.com 1.10,2013-09-08 01:34:00,
2013-09-07 18:49:00,77.0,51.0,29.80,North,5,5.0,7.0,40,0.00,,,0.00,35,weatherlink.com 1.10,2013-09-08 01:49:00,
2013-09-07 19:04:00,74.6,51.0,29.80,North,355,4.0,6.0,44,0.00,,,0.00,16,weatherlink.com 1.10,2013-09-08 02:04:00,
2013-09-07 19:19:00,72.3,52.0,29.80,ENE,57,4.0,6.0,49,0.00,,,0.00,9,weatherlink.com 1.10,2013-09-08 02:19:00,
2013-09-07 19:34:00,69.9,52.0,29.80,North,355,4.0,6.0,54,0.00,,,0.00,0,weatherlink.com 1.10,2013-09-08 02:34:00,
2013-09-07 19:49:00,68.5,52.0,29.81,NE,38,0.0,4.0,57,0.00,,,0.00,0,weatherlink.com 1.10,2013-09-08 02:49:00,
2013-09-07 20:04:00,67.2,52.0,29.81,NE,51,3.0,4.0,59,0.00,,,0.00,0,weatherlink.com 1.10,2013-09-08 03:04:00,
2013-09-07 20:19:00,66.7,52.0,29.81,NE,53,0.0,3.0,60,0.00,,,0.00,0,weatherlink.com 1.10,2013-09-08 03:19:00,
2013-09-07 20:34:00,66.3,52.0,29.81,ENE,59,1.0,3.0,60,0.00,,,0.00,0,weatherlink.com 1.10,2013-09-08 03:34:00,
2013-09-07 20:49:00,66.0,52.0,29.81,NE,47,4.0,5.0,61,0.00,,,0.00,0,weatherlink.com 1.10,2013-09-08 03:49:00,
2013-09-07 21:04:00,65.2,53.0,29.82,NE,43,1.0,5.0,64,0.00,,,0.00,0,weatherlink.com 1.10,2013-09-08 04:04:00,
2013-09-07 21:19:00,64.2,53.0,29.82,NNW,345,3.0,5.0,66,0.00,,,0.00,0,weatherlink.com 1.10,2013-09-08 04:19:00,
2013-09-07 21:34:00,63.4,53.0,29.82,NW,325,3.0,5.0,69,0.00,,,0.00,0,weatherlink.com 1.10,2013-09-08 04:34:00,
2013-09-07 21:49:00,62.6,53.0,29.82,North,350,4.0,8.0,71,0.00,,,0.00,0,weatherlink.com 1.10,2013-09-08 04:49:00,
2013-09-07 22:04:00,61.6,53.0,29.82,NW,326,2.0,6.0,74,0.00,,,0.00,0,weatherlink.com 1.10,2013-09-08 05:04:00,
2013-09-07 22:19:00,60.8,53.0,29.83,NNW,337,2.0,5.0,76,0.00,,,0.00,0,weatherlink.com 1.10,2013-09-08 05:19:00,
2013-09-07 22:34:00,59.8,53.0,29.83,NNE,16,2.0,4.0,78,0.00,,,0.00,0,weatherlink.com 1.10,2013-09-08 05:34:00,
2013-09-07 22:49:00,59.1,53.0,29.83,NE,35,1.0,4.0,81,0.00,,,0.00,0,weatherlink.com 1.10,2013-09-08 05:49:00,
2013-09-07 23:04:00,58.5,53.0,29.83,NNE,13,2.0,5.0,83,0.00,,,0.00,0,weatherlink.com 1.10,2013-09-08 06:04:00,
2013-09-07 23:19:00,58.2,53.0,29.83,NE,35,0.0,4.0,84,0.00,,,0.00,0,weatherlink.com 1.10,2013-09-08 06:19:00,
2013-09-07 23:34:00,57.9,54.0,29.84,NNE,32,1.0,3.0,85,0.00,,,0.00,0,weatherlink.com 1.10,2013-09-08 06:34:00,
2013-09-07 23:49:00,57.6,53.0,29.83,NE,38,0.0,3.0,85,0.00,,,0.00,0,weatherlink.com 1.10,2013-09-08 06:49:00,